THORAD AGENA D DEB, 4681

Orbit data source: Space-Track

THORAD AGENA D DEB, 4681 is space debris in SSO originally from a launch on Wed, 08 Apr 1970 UTC launched from the Air Force Western Test Range (AFWTR). Debris objects in space refer to the collection of defunct objects orbiting the Earth. Examples of debris include non-operational satellites, rocket bodies, and fragments generated from explosions, collisions, or faulty payload assembly.

Loading next visibility...
Identifier
4681, 1970-025BE
Orbit
SSO
Country
Flag of USUS
Related business
Manufacturer
Unknown
Mission
Spacecraft
Bus & Motor
Unknown
Mass
Unknown
Launch date (UTC)
1970-04-08 (56 years ago)
Launch vehicle
Unknown
Launch site
Air Force Western Test Range (AFWTR)
Object type
Payload
Rocket body
Debris
Shape & HBR
Unknown shape, 0.2 m
Radar Cross Section
Medium (>0.1 m² and <1 m²)

Expand to show TLE details & history
Last TLE update: 6 hours ago

TLE from 6 hours ago
0 THORAD AGENA D DEB
1  4681U 70025BE  26150.09728933  .00000563  00000-0  15191-2 0  9991
2  4681  99.8506  13.6658 0244101  86.2663  65.5443 13.08867837672823
Epoch: 2026-05-30T02:20Z
TLE epoch observation values (Epoch: 2026-05-30T02:20:05.798Z)
Latitude
25.23725°
Longitude
-84.30584°
Altitude
1,157.374 km
Speed
7.312 km/s
True Right ascension
13h 13m 20s
True Declination
25° 06' 43"
Sunlit
Object was in daylight at epoch
Visualization orbit readout
Latitude
Unknown
Longitude
Unknown
Altitude
Unknown
Speed
Unknown
Apparent Right ascension
Unknown
Apparent Declination
Unknown
Sunlit
N/A
Visualization observer readout
Local Sidereal Time
18:09:58
Azimuth
Unknown
Elevation
Unknown
Doppler factor
Unknown
Orbital elements
Apogee altitude
1,410.495 km
Perigee altitude
1,039.313 km
Semi-major axis
7,603.041 km
Eccentricity
0.02441
Inclination
99.8506°
RAAN
13.6658°
Arg. of periapsis
86.2663°
True anomaly
68.12222°
Mean anomaly
65.5443°
Eccentric anomaly
66.83009°
Mean motion
3.27388 °/min
Orbital period
109.96 mins
BSTAR
0.0015191
Loading maneuver chart data...
Computing Atmospheric mass density...

Documentation

Showing up to 5 results
|